2020/07/21 23:27:36+0000,-39.94,-48.06,-34.37,-47.60,-54.63,-57.51
2020/07/21 23:28:28+0000,-39.67,-48.09,-34.24,-26.84,-54.62,-57.13
2020/07/21 23:29:20+0000,-40.78,-46.51,-34.22,-48.43,-55.22,-56.99
2020/07/21 23:30:12+0000,-39.39,-46.45,-34.45,-46.29,-55.16,-57.66
2020/07/21 23:31:12+0000,-40.57,-48.89,-34.66,-48.13,-55.36,-57.63
2020/07/21 23:32:04+0000,-40.94,-47.79,-35.07,-39.28,-54.63,-57.23
2020/07/21 23:32:56+0000,-39.67,-46.79,-34.01,-27.33,-54.73,-57.71
2020/07/21 23:33:48+0000,-38.53,-47.48,-34.19,-46.81,-53.96,-56.93
2020/07/21 23:34:40+0000,-39.76,-47.70,-34.37,-45.98,-55.32,-57.41
2020/07/21 23:35:32+0000,-39.48,-48.97,-33.51,-27.47,-55.02,-57.18
2020/07/21 23:36:24+0000,-40.37,-47.79,-33.76,-26.86,-54.90,-57.46
2020/07/21 23:37:16+0000,-40.24,-47.32,-33.77,-46.93,-55.87,-57.07
2020/07/21 23:38:08+0000,-40.24,-47.70,-33.73,-47.09,-55.45,-57.69
2020/07/21 23:39:00+0000,-39.68,-47.36,-33.24,-27.44,-54.51,-56.94
2020/07/21 23:39:52+0000,-39.31,-47.12,-33.73,-27.06,-54.65,-56.73
2020/07/21 23:40:45+0000,-39.71,-47.41,-34.33,-46.95,-54.38,-56.45
2020/07/21 23:41:51+0000,-39.85,-47.21,-34.17,-47.10,-54.55,-56.88
2020/07/21 23:42:43+0000,-40.24,-48.34,-34.08,-45.95,-54.30,-56.59
2020/07/21 23:43:35+0000,-40.29,-46.39,-33.98,-47.23,-54.50,-56.84
2020/07/21 23:44:27+0000,-40.85,-47.21,-34.09,-46.88,-54.63,-56.44
2020/07/21 23:45:19+0000,-40.29,-47.09,-33.61,-47.06,-53.76,-56.64
2020/07/21 23:46:11+0000,-40.79,-47.67,-33.82,-46.59,-54.16,-56.33
2020/07/21 23:47:03+0000,-39.31,-47.41,-34.41,-47.06,-54.43,-56.71
2020/07/21 23:47:55+0000,-39.43,-47.07,-33.87,-47.58,-54.05,-56.60
2020/07/21 23:48:47+0000,-39.66,-47.18,-34.64,-47.02,-54.52,-56.79
2020/07/21 23:49:39+0000,-39.78,-47.24,-33.24,-45.61,-54.58,-57.24
2020/07/21 23:50:32+0000,-38.29,-46.91,-33.83,-46.68,-54.41,-56.38
2020/07/21 23:51:37+0000,-39.07,-46.86,-33.87,-45.21,-54.39,-56.65
2020/07/21 23:52:29+0000,-40.53,-47.67,-34.52,-45.38,-54.62,-56.76
2020/07/21 23:53:21+0000,-40.44,-48.37,-34.23,-46.62,-54.44,-56.93
2020/07/21 23:54:13+0000,-40.73,-48.40,-34.40,-45.18,-54.88,-56.74
2020/07/21 23:55:05+0000,-40.27,-48.11,-33.69,-46.48,-54.63,-56.54
2020/07/21 23:55:58+0000,-41.43,-47.22,-34.45,-47.48,-54.09,-56.41
2020/07/21 23:56:50+0000,-41.17,-48.24,-33.39,-47.84,-54.79,-56.48
2020/07/21 23:57:42+0000,-40.97,-47.17,-33.79,-46.74,-54.54,-56.86
2020/07/21 23:58:34+0000,-38.85,-46.66,-33.73,-47.52,-55.13,-56.87
2020/07/21 23:59:26+0000,-41.33,-48.26,-33.76,-47.57,-54.29,-57.19
2020/07/22 00:00:18+0000,-40.36,-47.21,-34.06,-45.28,-54.67,-56.17
2020/07/22 00:01:20+0000,-40.04,-47.15,-34.15,-45.92,-54.70,-56.82
2020/07/22 00:02:12+0000,-41.00,-48.17,-33.81,-47.39,-54.86,-56.77
2020/07/22 00:03:04+0000,-39.69,-47.86,-33.17,-46.92,-55.11,-56.68
2020/07/22 00:03:57+0000,-39.64,-46.60,-34.15,-45.55,-55.07,-57.30
2020/07/22 00:04:49+0000,-39.73,-47.47,-34.26,-47.92,-55.49,-56.81
2020/07/22 00:05:41+0000,-40.31,-49.63,-34.70,-46.85,-55.12,-56.42
2020/07/22 00:06:33+0000,-39.37,-47.30,-34.64,-47.83,-55.53,-56.58
2020/07/22 00:07:25+0000,-39.64,-48.23,-34.48,-47.73,-54.62,-56.82
2020/07/22 00:08:17+0000,-39.72,-47.35,-34.16,-47.13,-54.44,-56.97
2020/07/22 00:09:09+0000,-39.93,-48.23,-34.50,-47.35,-55.32,-56.63
2020/07/22 00:10:01+0000,-38.74,-46.71,-34.19,-46.94,-55.19,-56.47
2020/07/22 00:11:07+0000,-38.79,-48.79,-34.11,-47.14,-54.75,-56.44
2020/07/22 00:11:59+0000,-38.64,-47.18,-33.62,-47.38,-55.57,-56.48
2020/07/22 00:12:51+0000,-39.12,-48.08,-34.04,-45.22,-55.28,-56.54
2020/07/22 00:13:43+0000,-38.89,-47.71,-34.51,-47.09,-55.75,-57.03
2020/07/22 00:14:35+0000,-38.91,-48.17,-33.81,-47.08,-55.33,-56.47
2020/07/22 00:15:27+0000,-38.89,-47.43,-34.72,-46.27,-55.13,-56.54
2020/07/22 00:16:19+0000,-39.90,-48.46,-34.37,-48.24,-55.65,-57.05
2020/07/22 00:17:11+0000,-39.02,-47.93,-34.68,-48.04,-54.77,-57.03
2020/07/22 00:18:03+0000,-39.68,-47.76,-34.57,-48.25,-55.31,-56.09
2020/07/22 00:18:55+0000,-39.03,-47.14,-34.58,-47.21,-55.48,-57.00
2020/07/22 00:19:48+0000,-39.42,-47.95,-34.08,-47.92,-55.42,-56.25
2020/07/22 00:20:40+0000,-39.53,-47.14,-34.30,-46.53,-55.20,-56.38
2020/07/22 00:21:39+0000,-39.45,-48.72,-34.67,-46.38,-55.86,-56.57
2020/07/22 00:22:31+0000,-39.35,-48.01,-34.52,-47.01,-55.50,-56.99
2020/07/22 00:23:23+0000,-38.97,-47.18,-34.39,-46.66,-55.24,-56.86
2020/07/22 00:24:15+0000,-39.27,-47.07,-34.34,-46.85,-55.43,-56.75
2020/07/22 00:25:08+0000,-40.91,-48.18,-34.91,-46.95,-52.81,-57.14
2020/07/22 00:26:00+0000,-39.10,-47.60,-34.85,-45.01,-55.18,-57.38
2020/07/22 00:26:52+0000,-38.92,-47.40,-35.21,-45.15,-55.08,-56.51
2020/07/22 00:27:44+0000,-39.08,-47.10,-38.30,-47.97,-55.35,-57.21
2020/07/22 00:28:36+0000,-39.30,-46.12,-34.80,-47.24,-55.70,-56.88
2020/07/22 00:29:28+0000,-39.46,-47.77,-35.35,-46.94,-55.12,-57.13
2020/07/22 00:30:20+0000,-39.44,-47.34,-34.94,-47.19,-54.98,-56.70
2020/07/22 00:31:25+0000,-40.06,-48.91,-34.90,-44.50,-54.90,-56.67
2020/07/22 00:32:18+0000,-40.56,-50.23,-34.98,-47.76,-55.22,-56.87
2020/07/22 00:33:10+0000,-40.55,-50.76,-34.60,-47.21,-55.39,-56.69
2020/07/22 00:34:02+0000,-39.92,-50.60,-34.79,-45.07,-55.66,-57.29
2020/07/22 00:34:54+0000,-39.86,-52.11,-34.88,-45.65,-54.93,-56.91
2020/07/22 00:35:46+0000,-39.80,-50.28,-34.97,-47.80,-55.25,-56.67
2020/07/22 00:36:38+0000,-39.85,-50.85,-35.41,-47.94,-55.65,-56.51
2020/07/22 00:37:30+0000,-40.99,-51.17,-34.55,-48.03,-55.84,-57.18
2020/07/22 00:38:22+0000,-39.63,-51.38,-34.19,-48.05,-55.64,-56.68
2020/07/22 00:39:14+0000,-40.03,-51.47,-35.14,-46.98,-55.22,-56.99
2020/07/22 00:40:06+0000,-39.79,-52.24,-34.86,-46.87,-55.34,-56.81
2020/07/22 00:41:26+0000,-39.13,-51.13,-34.68,-47.14,-54.46,-56.72
2020/07/22 00:42:18+0000,-39.75,-51.77,-35.00,-48.19,-55.35,-57.20
2020/07/22 00:43:10+0000,-39.89,-51.45,-34.36,-47.25,-54.98,-57.13
2020/07/22 00:44:02+0000,-40.05,-50.66,-35.28,-45.15,-55.29,-57.56
2020/07/22 00:44:54+0000,-39.32,-51.17,-34.21,-47.79,-54.92,-56.99
2020/07/22 00:45:46+0000,-39.73,-49.32,-35.65,-48.60,-55.38,-56.53
2020/07/22 00:46:38+0000,-39.39,-52.18,-34.78,-47.14,-54.91,-56.66
2020/07/22 00:47:30+0000,-39.54,-50.37,-34.43,-45.26,-55.56,-56.88
2020/07/22 00:48:22+0000,-38.54,-50.70,-34.40,-44.46,-55.26,-57.66
2020/07/22 00:49:14+0000,-38.97,-50.95,-34.78,-47.76,-55.46,-56.84
2020/07/22 00:50:06+0000,-40.08,-51.71,-35.54,-48.30,-55.57,-56.79
2020/07/22 00:51:06+0000,-38.21,-51.47,-34.42,-48.51,-55.53,-56.91
2020/07/22 00:51:58+0000,-39.87,-52.06,-35.10,-45.45,-55.14,-57.34
2020/07/22 00:52:50+0000,-38.76,-51.01,-34.96,-47.70,-55.08,-56.58
2020/07/22 00:53:42+0000,-39.69,-51.87,-35.09,-47.67,-56.03,-56.93
2020/07/22 00:54:34+0000,-39.89,-51.38,-34.44,-47.45,-55.34,-56.94
2020/07/22 00:55:26+0000,-39.88,-51.79,-34.82,-44.95,-55.62,-56.89
2020/07/22 00:56:18+0000,-40.01,-49.72,-35.61,-47.63,-55.21,-57.20
2020/07/22 00:57:10+0000,-40.49,-52.23,-35.00,-48.03,-55.12,-56.94
2020/07/22 00:58:02+0000,-39.68,-48.57,-34.32,-44.66,-54.58,-56.73
2020/07/22 00:58:54+0000,-39.87,-46.54,-34.59,-44.94,-55.24,-56.55
2020/07/22 00:59:46+0000,-39.86,-45.36,-34.67,-46.80,-54.70,-56.84
2020/07/22 01:00:38+0000,-39.65,-52.31,-35.72,-47.87,-55.01,-57.55
2020/07/22 01:01:43+0000,-40.26,-51.41,-35.13,-47.57,-55.08,-57.24
2020/07/22 01:02:35+0000,-39.68,-52.39,-34.82,-48.02,-54.76,-57.19
2020/07/22 01:03:27+0000,-40.09,-51.41,-34.99,-47.25,-55.11,-56.73
2020/07/22 01:04:20+0000,-39.89,-52.04,-34.66,-47.58,-54.89,-56.89
2020/07/22 01:05:12+0000,-40.77,-50.85,-34.50,-47.79,-55.30,-57.05
2020/07/22 01:06:04+0000,-39.96,-51.17,-34.53,-47.83,-55.08,-56.72
2020/07/22 01:06:56+0000,-42.99,-50.15,-33.99,-47.57,-55.04,-57.18
2020/07/22 01:07:48+0000,-42.02,-45.28,-33.87,-47.52,-55.37,-56.29
2020/07/22 01:08:40+0000,-42.31,-46.58,-33.70,-47.55,-55.18,-56.99
2020/07/22 01:09:32+0000,-42.59,-51.47,-34.54,-47.39,-55.65,-56.57
2020/07/22 01:10:24+0000,-42.03,-50.75,-34.30,-47.97,-55.50,-57.25
2020/07/22 01:11:22+0000,-42.01,-52.12,-34.92,-48.00,-55.70,-57.08
2020/07/22 01:12:15+0000,-42.36,-51.15,-34.72,-47.80,-54.90,-56.61
2020/07/22 01:13:07+0000,-42.06,-51.49,-34.86,-47.85,-55.07,-56.62
2020/07/22 01:13:59+0000,-42.25,-50.88,-34.70,-47.48,-55.27,-57.34
2020/07/22 01:14:51+0000,-41.99,-51.33,-34.30,-45.89,-54.74,-56.77
2020/07/22 01:15:43+0000,-42.14,-50.59,-34.83,-47.48,-55.91,-56.52
2020/07/22 01:16:35+0000,-42.39,-51.08,-34.51,-48.29,-55.38,-56.72
2020/07/22 01:17:27+0000,-42.17,-51.21,-34.70,-45.25,-55.42,-56.75
2020/07/22 01:18:19+0000,-41.60,-49.34,-34.74,-47.38,-55.88,-56.69
2020/07/22 01:19:11+0000,-41.92,-50.58,-35.10,-47.44,-55.05,-56.37
2020/07/22 01:20:03+0000,-41.69,-49.43,-34.31,-47.77,-55.61,-56.71
2020/07/22 01:21:05+0000,-42.43,-51.70,-34.58,-48.12,-55.76,-57.12
2020/07/22 01:21:57+0000,-42.92,-50.16,-35.25,-47.79,-55.99,-57.01
2020/07/22 01:22:49+0000,-42.33,-50.41,-35.31,-47.74,-55.24,-56.78
2020/07/22 01:23:41+0000,-43.06,-50.95,-35.24,-47.71,-55.28,-56.87
2020/07/22 01:24:33+0000,-43.15,-50.62,-35.01,-47.80,-55.39,-57.09
2020/07/22 01:25:25+0000,-43.04,-49.60,-35.10,-48.08,-55.53,-56.98
2020/07/22 01:26:17+0000,-42.75,-51.32,-35.31,-47.55,-55.46,-57.52
2020/07/22 01:27:09+0000,-42.82,-51.56,-35.13,-47.10,-56.07,-57.04
2020/07/22 01:28:01+0000,-43.59,-49.82,-35.01,-45.05,-55.49,-56.72
2020/07/22 01:28:53+0000,-43.01,-50.72,-35.19,-47.11,-55.49,-57.02
2020/07/22 01:29:46+0000,-42.10,-51.45,-35.38,-47.05,-55.52,-57.22
2020/07/22 01:30:38+0000,-42.67,-49.92,-35.29,-48.38,-55.33,-57.04
2020/07/22 01:31:35+0000,-42.28,-49.98,-35.17,-48.33,-55.09,-56.70
2020/07/22 01:32:27+0000,-42.39,-51.05,-35.18,-47.50,-55.59,-57.00
2020/07/22 01:33:19+0000,-43.20,-50.99,-34.54,-47.86,-55.17,-57.45
2020/07/22 01:34:11+0000,-41.06,-50.83,-34.64,-47.34,-55.59,-57.00
2020/07/22 01:35:03+0000,-40.59,-48.55,-34.90,-44.92,-55.42,-57.07
2020/07/22 01:35:55+0000,-40.64,-50.27,-35.13,-45.29,-55.47,-57.03
2020/07/22 01:36:47+0000,-42.28,-50.94,-34.60,-47.32,-55.33,-57.00
2020/07/22 01:37:39+0000,-41.56,-49.70,-35.00,-47.62,-55.95,-57.22
2020/07/22 01:38:31+0000,-42.65,-49.69,-34.56,-45.45,-55.55,-57.17
2020/07/22 01:39:23+0000,-42.25,-50.53,-35.25,-44.97,-55.34,-56.81
2020/07/22 01:40:16+0000,-42.03,-50.27,-35.48,-47.48,-55.48,-57.20
2020/07/22 01:41:14+0000,-41.44,-50.54,-35.14,-47.78,-55.58,-57.36
2020/07/22 01:42:06+0000,-42.08,-50.00,-35.28,-47.43,-55.64,-56.86
2020/07/22 01:42:58+0000,-42.54,-50.87,-34.84,-48.02,-55.50,-57.55
2020/07/22 01:43:50+0000,-42.72,-49.13,-35.15,-47.97,-55.25,-56.67
2020/07/22 01:44:42+0000,-42.02,-49.54,-34.92,-47.32,-55.42,-57.03
2020/07/22 01:45:34+0000,-42.15,-48.44,-35.13,-48.32,-55.17,-57.43
2020/07/22 01:46:26+0000,-41.65,-48.71,-34.85,-46.38,-55.51,-56.93
2020/07/22 01:47:18+0000,-42.29,-49.30,-34.83,-46.95,-55.53,-56.96
2020/07/22 01:48:10+0000,-41.79,-48.60,-35.16,-47.71,-56.02,-57.10
2020/07/22 01:49:02+0000,-42.06,-47.75,-35.67,-47.04,-55.52,-56.98
2020/07/22 01:49:55+0000,-40.58,-49.27,-34.76,-47.36,-55.02,-57.19
2020/07/22 01:50:47+0000,-42.34,-48.30,-35.45,-46.97,-55.22,-57.22
2020/07/22 01:51:51+0000,-41.99,-47.63,-34.62,-46.78,-55.65,-56.92
2020/07/22 01:52:43+0000,-40.94,-47.85,-35.53,-47.57,-55.37,-57.10
2020/07/22 01:53:35+0000,-41.37,-48.51,-34.69,-47.96,-55.24,-56.68
2020/07/22 01:54:27+0000,-42.17,-49.03,-35.05,-45.93,-55.63,-57.07
2020/07/22 01:55:19+0000,-42.20,-49.22,-34.64,-48.35,-55.48,-56.80
2020/07/22 01:56:11+0000,-42.31,-48.43,-34.26,-47.66,-55.19,-57.29
2020/07/22 01:57:03+0000,-42.06,-48.52,-34.68,-47.27,-55.44,-56.65
2020/07/22 01:57:55+0000,-41.26,-48.25,-35.04,-47.94,-55.75,-56.90
2020/07/22 01:58:47+0000,-42.15,-48.29,-35.28,-47.18,-55.34,-56.57
2020/07/22 01:59:39+0000,-41.84,-48.02,-36.28,-48.14,-55.80,-56.45
2020/07/22 02:00:32+0000,-41.05,-48.24,-35.28,-47.34,-54.97,-56.42
2020/07/22 02:01:38+0000,-42.12,-48.54,-35.74,-48.10,-55.28,-57.04
2020/07/22 02:02:30+0000,-41.79,-47.87,-35.61,-47.71,-55.32,-56.84
2020/07/22 02:03:23+0000,-42.26,-45.26,-35.79,-47.05,-55.63,-56.97
2020/07/22 02:04:15+0000,-41.95,-45.76,-35.58,-47.76,-55.29,-57.26
2020/07/22 02:05:07+0000,-41.91,-46.58,-35.09,-47.11,-55.35,-56.62
2020/07/22 02:05:59+0000,-41.19,-45.63,-35.25,-47.32,-55.83,-56.80
2020/07/22 02:06:51+0000,-41.49,-45.61,-35.10,-47.86,-55.06,-56.88
2020/07/22 02:07:43+0000,-39.65,-45.86,-35.46,-47.38,-55.30,-56.44
2020/07/22 02:08:35+0000,-40.22,-46.68,-35.30,-48.39,-55.39,-57.04
2020/07/22 02:09:27+0000,-39.86,-46.13,-34.86,-47.83,-55.37,-57.21
2020/07/22 02:10:19+0000,-38.81,-45.66,-34.41,-47.36,-55.35,-56.72
2020/07/22 02:11:25+0000,-42.10,-45.35,-34.64,-47.63,-54.50,-56.51
2020/07/22 02:12:18+0000,-40.69,-45.54,-35.00,-47.84,-55.39,-57.31
2020/07/22 02:13:10+0000,-41.03,-45.48,-35.11,-46.36,-55.97,-56.85
2020/07/22 02:14:02+0000,-40.43,-45.11,-35.65,-47.88,-55.67,-56.55
2020/07/22 02:14:54+0000,-42.23,-46.53,-36.05,-47.25,-55.34,-56.89
2020/07/22 02:15:46+0000,-41.69,-45.12,-35.20,-47.30,-55.50,-57.46
2020/07/22 02:16:38+0000,-41.64,-45.13,-35.51,-47.65,-55.77,-56.44
2020/07/22 02:17:30+0000,-41.38,-45.71,-35.85,-47.91,-55.72,-57.01
2020/07/22 02:18:22+0000,-41.41,-45.95,-35.48,-47.25,-55.76,-57.68
2020/07/22 02:19:14+0000,-40.37,-44.78,-37.12,-47.05,-55.69,-57.39
2020/07/22 02:20:06+0000,-42.15,-47.26,-37.48,-45.92,-56.21,-56.86
2020/07/22 02:21:06+0000,-41.49,-45.75,-36.97,-47.24,-55.73,-56.73
2020/07/22 02:21:58+0000,-41.75,-46.59,-37.39,-46.76,-55.81,-56.95
2020/07/22 02:22:50+0000,-41.10,-45.20,-37.08,-48.65,-55.76,-57.10
2020/07/22 02:23:42+0000,-41.03,-47.69,-37.25,-47.97,-55.52,-57.45
2020/07/22 02:24:34+0000,-41.16,-45.14,-37.40,-48.44,-55.74,-57.29
2020/07/22 02:25:26+0000,-38.48,-46.40,-36.55,-47.47,-56.00,-57.10
2020/07/22 02:26:18+0000,-41.46,-45.83,-36.17,-48.14,-55.86,-57.23
2020/07/22 02:27:10+0000,-42.38,-44.78,-35.64,-47.12,-55.58,-57.30
2020/07/22 02:28:02+0000,-41.98,-45.70,-35.12,-46.26,-55.30,-56.82
2020/07/22 02:28:54+0000,-41.23,-45.67,-35.72,-45.88,-55.91,-56.46
2020/07/22 02:29:46+0000,-41.23,-47.16,-34.96,-46.84,-55.70,-56.78
2020/07/22 02:30:38+0000,-40.97,-46.34,-35.28,-47.66,-55.50,-57.18
2020/07/22 02:31:40+0000,-41.85,-46.41,-35.26,-47.07,-56.19,-57.26
2020/07/22 02:32:33+0000,-41.30,-46.61,-36.03,-47.56,-55.74,-57.15
2020/07/22 02:33:25+0000,-41.61,-46.43,-35.65,-47.16,-55.82,-57.33
2020/07/22 02:34:17+0000,-41.07,-47.12,-35.25,-46.31,-55.74,-57.09
2020/07/22 02:35:09+0000,-41.76,-46.64,-35.27,-47.86,-54.90,-57.37
2020/07/22 02:36:01+0000,-41.95,-45.95,-35.65,-46.93,-55.44,-57.12
2020/07/22 02:36:53+0000,-42.12,-48.77,-34.97,-46.48,-55.50,-56.68
2020/07/22 02:37:45+0000,-40.82,-46.23,-35.77,-47.17,-55.54,-56.95
2020/07/22 02:38:37+0000,-42.42,-48.44,-35.01,-47.40,-55.78,-56.70
2020/07/22 02:39:29+0000,-42.37,-47.32,-36.17,-46.13,-55.52,-57.13
2020/07/22 02:40:21+0000,-42.38,-47.26,-35.13,-46.36,-55.48,-56.70
2020/07/22 02:41:21+0000,-42.38,-47.49,-35.45,-46.95,-55.31,-56.75
2020/07/22 02:42:13+0000,-41.99,-45.74,-35.76,-47.12,-55.17,-57.16
2020/07/22 02:43:05+0000,-42.23,-46.33,-36.10,-48.02,-54.78,-57.06
2020/07/22 02:43:57+0000,-42.36,-47.82,-35.57,-48.26,-55.22,-56.88
2020/07/22 02:44:49+0000,-41.94,-46.39,-35.95,-47.73,-55.20,-57.49
2020/07/22 02:45:41+0000,-41.69,-47.51,-35.46,-46.76,-54.84,-57.43
2020/07/22 02:46:33+0000,-42.13,-47.32,-35.28,-47.76,-54.92,-57.17
2020/07/22 02:47:25+0000,-41.34,-47.43,-35.18,-47.83,-54.70,-57.00
2020/07/22 02:48:17+0000,-42.66,-46.62,-34.48,-45.53,-54.97,-57.03
2020/07/22 02:49:10+0000,-42.00,-46.09,-34.73,-46.79,-55.79,-57.28
2020/07/22 02:50:02+0000,-41.77,-46.33,-34.68,-47.38,-54.00,-57.59
2020/07/22 02:51:07+0000,-40.66,-46.93,-35.27,-45.34,-54.82,-57.05
2020/07/22 02:51:59+0000,-41.19,-46.58,-34.64,-47.51,-55.27,-57.07
2020/07/22 02:52:51+0000,-41.98,-49.23,-34.39,-47.00,-55.64,-57.58
2020/07/22 02:53:43+0000,-41.24,-45.49,-34.64,-46.11,-55.46,-57.47
2020/07/22 02:54:35+0000,-38.12,-44.41,-34.43,-48.03,-55.54,-57.10
2020/07/22 02:55:28+0000,-42.22,-45.71,-34.74,-47.37,-55.22,-56.85
2020/07/22 02:56:20+0000,-41.75,-46.64,-35.39,-47.46,-55.37,-57.14
2020/07/22 02:57:12+0000,-41.50,-47.96,-34.87,-47.82,-55.13,-57.33
2020/07/22 02:58:04+0000,-37.32,-45.06,-34.20,-47.51,-54.91,-56.84
2020/07/22 02:58:56+0000,-40.73,-46.63,-34.35,-46.91,-54.57,-57.28
2020/07/22 02:59:48+0000,-40.99,-46.14,-34.69,-47.56,-55.90,-57.24
2020/07/22 03:00:40+0000,-41.70,-46.30,-34.70,-48.07,-54.93,-57.28
2020/07/22 03:01:46+0000,-42.48,-46.04,-34.40,-46.71,-55.99,-57.24
2020/07/22 03:02:38+0000,-41.76,-46.62,-34.28,-46.81,-54.99,-57.30
2020/07/22 03:03:30+0000,-39.67,-45.52,-34.98,-46.86,-54.75,-57.19
2020/07/22 03:04:22+0000,-42.10,-44.26,-35.32,-47.77,-55.63,-57.75
2020/07/22 03:05:14+0000,-42.45,-44.69,-35.65,-46.68,-54.96,-57.10
2020/07/22 03:06:06+0000,-42.11,-47.95,-35.37,-47.48,-55.18,-57.21
2020/07/22 03:06:58+0000,-42.53,-46.50,-35.40,-47.66,-55.14,-57.25
2020/07/22 03:07:50+0000,-42.23,-47.64,-34.86,-47.05,-54.86,-57.12
2020/07/22 03:08:42+0000,-41.79,-46.06,-35.68,-46.94,-55.08,-57.05
2020/07/22 03:09:34+0000,-42.33,-46.89,-35.27,-47.78,-55.47,-57.15
2020/07/22 03:10:27+0000,-39.98,-46.18,-34.92,-47.34,-54.72,-56.97
2020/07/22 03:11:31+0000,-42.50,-43.85,-34.91,-48.11,-55.95,-57.01
2020/07/22 03:12:23+0000,-37.81,-46.26,-34.30,-47.48,-56.06,-57.63
2020/07/22 03:13:15+0000,-42.05,-46.05,-35.04,-47.70,-55.59,-56.90
2020/07/22 03:14:07+0000,-42.35,-45.27,-34.74,-47.82,-54.65,-57.01
2020/07/22 03:15:00+0000,-42.51,-47.56,-35.49,-48.35,-55.94,-56.73
2020/07/22 03:15:52+0000,-41.59,-47.91,-35.57,-48.03,-55.37,-57.23
2020/07/22 03:16:44+0000,-40.81,-47.52,-34.93,-47.79,-55.86,-57.14
2020/07/22 03:17:36+0000,-41.76,-46.63,-35.55,-45.92,-55.92,-57.07
2020/07/22 03:18:28+0000,-42.54,-46.10,-35.42,-48.31,-55.32,-56.86
2020/07/22 03:19:20+0000,-42.29,-47.65,-35.36,-48.54,-55.71,-57.08
2020/07/22 03:20:12+0000,-42.55,-45.05,-35.33,-47.92,-55.65,-56.83
2020/07/22 03:21:16+0000,-41.73,-44.42,-35.00,-48.14,-55.62,-56.99
2020/07/22 03:22:08+0000,-42.32,-46.28,-35.13,-48.19,-55.74,-57.15
2020/07/22 03:23:00+0000,-42.55,-46.41,-35.52,-47.51,-55.56,-57.57
2020/07/22 03:23:52+0000,-38.89,-45.93,-34.79,-48.89,-55.03,-57.85
2020/07/22 03:24:44+0000,-41.67,-44.86,-34.92,-48.70,-55.18,-57.52
2020/07/22 03:25:36+0000,-34.25,-46.25,-35.22,-48.78,-55.13,-56.69
2020/07/22 03:26:28+0000,-42.37,-47.70,-34.72,-48.96,-55.52,-57.54
2020/07/22 03:27:20+0000,-42.07,-47.21,-34.86,-48.76,-55.43,-56.86
2020/07/22 03:28:13+0000,-41.71,-45.87,-35.01,-48.44,-55.32,-57.06
2020/07/22 03:29:05+0000,-42.04,-46.83,-36.10,-49.45,-55.47,-57.24
2020/07/22 03:29:57+0000,-41.72,-46.91,-36.10,-48.96,-55.21,-57.09
2020/07/22 03:30:49+0000,-41.97,-45.14,-34.90,-49.43,-54.83,-57.19
2020/07/22 03:32:00+0000,-42.36,-46.58,-35.27,-48.66,-55.42,-57.14
2020/07/22 03:32:52+0000,-41.62,-47.57,-35.09,-48.44,-55.17,-56.85
2020/07/22 03:33:44+0000,-43.08,-46.39,-35.61,-48.74,-55.07,-57.08
2020/07/22 03:34:36+0000,-39.41,-47.09,-35.42,-47.71,-55.83,-57.27
2020/07/22 03:35:29+0000,-41.85,-46.06,-35.51,-48.92,-54.65,-57.58
2020/07/22 03:36:21+0000,-41.73,-47.44,-35.57,-48.82,-55.41,-56.67
2020/07/22 03:37:13+0000,-41.21,-44.49,-35.45,-48.94,-55.18,-56.93
2020/07/22 03:38:05+0000,-41.70,-46.97,-35.14,-48.97,-55.16,-56.60
2020/07/22 03:38:57+0000,-40.10,-45.26,-35.09,-48.97,-54.42,-57.43
2020/07/22 03:39:49+0000,-30.90,-46.23,-35.12,-49.67,-55.06,-56.76
2020/07/22 03:40:41+0000,-41.38,-44.76,-35.03,-49.87,-54.53,-56.61
2020/07/22 03:41:40+0000,-40.77,-45.57,-35.70,-49.05,-54.97,-56.32
2020/07/22 03:42:32+0000,-40.24,-45.43,-35.45,-47.63,-54.90,-56.54
2020/07/22 03:43:24+0000,-40.44,-45.33,-35.67,-48.77,-54.60,-56.77
2020/07/22 03:44:16+0000,-41.88,-46.23,-35.18,-48.60,-54.84,-57.00
2020/07/22 03:45:08+0000,-41.36,-47.04,-35.66,-49.38,-55.01,-56.60
2020/07/22 03:46:00+0000,-41.33,-45.73,-35.23,-48.58,-55.13,-56.59
2020/07/22 03:46:52+0000,-38.51,-46.15,-34.96,-49.22,-55.15,-56.89
2020/07/22 03:47:45+0000,-40.55,-43.40,-35.12,-48.78,-55.60,-56.36
2020/07/22 03:48:37+0000,-41.45,-47.97,-35.54,-49.45,-55.48,-56.63
2020/07/22 03:49:29+0000,-38.93,-44.88,-34.97,-49.15,-55.37,-56.79
2020/07/22 03:50:21+0000,-39.80,-45.97,-34.91,-49.80,-54.72,-56.41
2020/07/22 03:51:41+0000,-40.98,-44.82,-35.33,-48.43,-54.71,-56.44
2020/07/22 03:52:33+0000,-41.01,-45.37,-35.31,-48.58,-54.85,-56.04
2020/07/22 03:53:25+0000,-39.12,-44.88,-35.17,-48.05,-54.37,-57.27
2020/07/22 03:54:17+0000,-41.07,-48.12,-35.85,-49.44,-54.82,-56.05
2020/07/22 03:55:10+0000,-41.24,-48.01,-35.83,-48.77,-54.35,-56.89
2020/07/22 03:56:02+0000,-38.95,-46.08,-35.32,-46.94,-55.44,-56.50
2020/07/22 03:56:54+0000,-39.98,-48.02,-35.26,-46.08,-54.68,-56.62
2020/07/22 03:57:46+0000,-41.89,-48.47,-35.64,-49.04,-55.08,-55.99
2020/07/22 03:58:38+0000,-39.92,-49.73,-35.21,-49.17,-55.00,-56.40
2020/07/22 03:59:30+0000,-39.45,-47.04,-35.30,-48.43,-54.75,-56.64
2020/07/22 04:00:22+0000,-40.49,-50.25,-35.32,-47.78,-54.92,-56.00
2020/07/22 04:01:42+0000,-37.58,-47.31,-35.42,-49.43,-55.07,-56.32
2020/07/22 04:02:34+0000,-37.65,-47.98,-35.61,-49.76,-54.41,-56.39
2020/07/22 04:03:26+0000,-40.52,-44.71,-35.67,-47.56,-54.86,-56.86
2020/07/22 04:04:18+0000,-40.85,-47.51,-35.28,-49.16,-54.69,-56.53
2020/07/22 04:05:10+0000,-40.71,-47.02,-35.51,-49.12,-54.63,-56.30
2020/07/22 04:06:02+0000,-39.14,-46.84,-35.65,-49.17,-54.87,-57.60
2020/07/22 04:06:54+0000,-40.08,-44.05,-35.59,-48.75,-54.65,-57.11
2020/07/22 04:07:47+0000,-41.07,-44.36,-34.70,-48.65,-55.23,-56.43
2020/07/22 04:08:39+0000,-39.96,-44.81,-35.47,-48.43,-54.95,-56.69
2020/07/22 04:09:31+0000,-40.67,-41.20,-35.31,-49.13,-54.97,-56.71
2020/07/22 04:10:23+0000,-40.24,-41.87,-35.60,-48.46,-55.42,-56.47
2020/07/22 04:11:32+0000,-39.84,-43.74,-35.79,-48.59,-55.48,-56.89
2020/07/22 04:12:24+0000,-38.72,-43.22,-35.98,-48.15,-55.22,-57.13
2020/07/22 04:13:16+0000,-38.78,-45.12,-35.49,-48.59,-54.99,-56.58
2020/07/22 04:14:08+0000,-39.97,-44.47,-35.42,-48.24,-55.07,-56.11
2020/07/22 04:15:00+0000,-27.99,-41.99,-35.60,-48.34,-55.04,-56.60
2020/07/22 04:15:52+0000,-39.58,-45.33,-35.74,-48.25,-55.04,-56.80
2020/07/22 04:16:44+0000,-40.30,-45.84,-36.22,-47.69,-54.58,-57.01
2020/07/22 04:17:36+0000,-39.85,-46.32,-35.74,-47.86,-54.70,-57.22
2020/07/22 04:18:28+0000,-39.89,-44.98,-35.24,-47.93,-54.72,-56.58
2020/07/22 04:19:20+0000,-41.11,-46.42,-35.56,-47.47,-54.71,-56.65
2020/07/22 04:20:13+0000,-39.46,-45.62,-35.61,-48.07,-54.48,-56.89
2020/07/22 04:21:12+0000,-37.20,-44.44,-36.65,-47.56,-54.10,-56.51
2020/07/22 04:22:04+0000,-37.42,-43.91,-34.99,-48.68,-53.90,-56.82
2020/07/22 04:22:56+0000,-41.63,-44.45,-34.90,-47.93,-54.47,-56.66
2020/07/22 04:23:48+0000,-40.32,-45.59,-34.98,-48.25,-54.23,-56.51
2020/07/22 04:24:40+0000,-40.64,-44.65,-35.55,-47.28,-54.30,-57.01
2020/07/22 04:25:32+0000,-40.53,-43.94,-35.59,-48.13,-54.21,-56.55
2020/07/22 04:26:24+0000,-39.57,-46.15,-35.01,-45.61,-54.84,-56.95
2020/07/22 04:27:16+0000,-40.17,-45.63,-35.71,-47.51,-54.71,-56.75
2020/07/22 04:28:08+0000,-40.78,-44.16,-36.22,-47.10,-55.11,-56.68
2020/07/22 04:29:00+0000,-37.07,-44.57,-36.23,-47.57,-54.63,-56.34
2020/07/22 04:29:52+0000,-40.41,-47.23,-36.47,-48.05,-54.41,-56.97
2020/07/22 04:30:44+0000,-39.84,-46.19,-36.66,-48.47,-54.78,-56.28
2020/07/22 04:31:58+0000,-41.47,-43.97,-36.34,-47.49,-54.98,-56.60
2020/07/22 04:32:50+0000,-37.76,-44.73,-36.34,-47.73,-54.59,-56.25
2020/07/22 04:33:42+0000,-39.73,-47.19,-36.73,-47.70,-54.26,-57.60
2020/07/22 04:34:34+0000,-41.00,-44.89,-36.27,-48.47,-53.94,-56.78
2020/07/22 04:35:26+0000,-40.89,-46.25,-36.83,-48.03,-54.70,-56.93
2020/07/22 04:36:18+0000,-40.93,-47.32,-35.91,-48.10,-55.20,-56.76
2020/07/22 04:37:10+0000,-38.90,-47.94,-36.42,-48.16,-54.57,-56.40
2020/07/22 04:38:02+0000,-39.80,-46.14,-36.37,-46.91,-54.50,-56.71
2020/07/22 04:38:54+0000,-39.73,-46.22,-36.73,-47.82,-54.98,-56.86
2020/07/22 04:39:46+0000,-39.37,-46.10,-37.00,-48.38,-54.90,-57.02
2020/07/22 04:40:38+0000,-35.50,-44.68,-36.52,-48.57,-54.04,-56.42
2020/07/22 04:41:58+0000,-41.19,-48.06,-36.37,-47.75,-53.94,-56.78
2020/07/22 04:42:50+0000,-40.17,-47.96,-36.47,-47.12,-53.47,-56.66
2020/07/22 04:43:42+0000,-39.78,-47.11,-36.39,-47.63,-53.79,-56.71
2020/07/22 04:44:34+0000,-40.27,-47.32,-35.60,-47.27,-54.15,-57.22